Location: Góry Miechowskie
(50.3599°N, 20.1803°E)
Time: 15:25:27
(UTC+00:00)

A-11 Canister half - Pass Details

Date: 18 September 2024
Orbit: 1515 x 1684 km, 47.2° (Epoch: 07 October)

Event Time Altitude Azimuth Distance (km) Brightness Sun altitude
Rises 23:55:30 0° 287° (WNW) 4,662 11.5 -35.0°
Enters shadow 23:57:01 - 282° (WNW) 4,263 11.2 -34.9°
Reaches altitude 10° 23:59:28 10° 272° (W) 3,678 - -34.7°
Maximum altitude 00:05:44 21° 229° (SW) 2,927 - -34.3°
Drops below altitude 10° 00:12:03 10° 185° (S) 3,709 - -33.8°
Sets 00:16:07 0° 170° (S) 4,713 - -33.4°
